User: anonymous   Login
Location: NJAA Observatory
(40.6819°N, 74.8979°W)
Time: 14:48:44
(UTC-04:00)
Language:

Cosmos 2263 Rocket - Orbit

View from above orbital plane
View from above orbital plane
View from above satellite
View from above satellite

Ground track
Ground track

The orbit data is extracted from the following two-line orbital elements,

1 22803U 93059B   16180.21379056 -.00000003  00000-0  22425-4 0  9993
2 22803  70.9912 275.3239 0018302 211.2252 148.7785 14.16747421178143
Epoch (UTC): 28 June 2016 05:07:51
Eccentricity: 0.0018302
inclination: 70.9912°
perigee height: 823 km
apogee height: 849 km
right ascension of ascending node: 275.3239°
argument of perigee: 211.2252°
revolutions per day: 14.16747421
mean anomaly at epoch: 148.7785°
orbit number at epoch: 17814

The dashed part of the orbit path shows where the satellite is in the earth's shadow,  

DLR